FLOCK 4A-2 (44080 NORAD) Tracking and Keplerian Element Data

This shows tracking and keplerian element data for the satellite.

Feedback or suggestion? Click here.




ElementValue
Catalog44080
NameFLOCK 4A-2
Epoch Orbit22854
Epoch Day127.12414997
Epoch Year2023
RAAN191.2972
Inclination97.2418
Eccentricity0.0004738
Argument of Perigee9.2617
Mean Anonmoly350.8727
Mean Motion15.6017676
Decay Rate0.00306836
L11 44080U 19018C 23127.12414997 .00306836 00000+0 36398-2 0 9993
L22 44080 97.2418 191.2972 0004738 9.2617 350.8727 15.60176760228549



Live tracking and technical data element details for FLOCK 4A-2 (NORAD 44080). FLOCK 4A-2 can be tracked NOW for your location showing map with azimuth and elevation plus other details from your city location.







IsCatalogInMostPopularTable: catalog: 44080, numindb: 369
Update: records affected: 1



GetName: 44080 FLOCK 4A-2

Hit Count: updated at: Sat, 06 Dec 2025 18:35:31 GMT